Regional Weather Roundup
Issued by NWS

Home | Current Version | Previous Version | Graphics & Text | Print | Product List | Glossary Off
Versions: 1 2 3 4 5 6 7 8 9 10 11 12 13 14 15 16 17 18 19 20 21 22 23 24 25 26 27 28 29 30 31 32 33 34 35 36 37 38 39 40 41 42 43 44 45 46 47 48 49 50

000
ASUS43 KDMX 240207
RWRIA

WEATHER ROUNDUP FOR IOWA
NATIONAL WEATHER SERVICE DES MOINES IA
800 PM CST SUN NOV 23 2014

NOTE: "FAIR" INDICATES FEW OR NO CLOUDS BELOW 12,000 FEET WITH NO
SIGNIFICANT WEATHER AND/OR OBSTRUCTIONS TO VISIBILITY.

* - THESE STATIONS ARE NOT NWS STATIONS...THUS NOT UNDER NWS
QUALITY CONTROL.  THEY ALSO DO NOT REPORT WEATHER SUCH
AS PRECIPITATION OR FOG.

IAZ001>003-012>014-020>022-031>034-043>046-240300-
   NORTHWEST IOWA

CITY           SKY/WX    TMP DP  RH WIND       PRES   REMARKS
CARROLL *      CLOUDY    39  34  81 NW24G30   29.45F WCI  28
CHEROKEE *     CLOUDY    36  30  80 NW12G22   29.51S WCI  27
DENISON *      CLOUDY    39  30  70 NW14G25   29.47F WCI  31
LE MARS *      CLOUDY    36  27  69 NW16G25   29.54S WCI  26
ORANGE CITY *  MOCLDY    36  27  69 NW17G24   29.52S WCI  25
SHELDON *      CLOUDY    34  28  80 NW22G31   29.50R WCI  22
SIOUX CITY     CLOUDY    40  27  59 NW25G37   29.53F WCI  29
SPENCER        CLOUDY    35  28  75 NW18G24   29.47F WCI  24
STORM LAKE *   MOCLDY    36  28  75 NW22G28   29.48F WCI  24
$$

IAZ055>058-069>071-079>083-090>094-240300-
   SOUTHWEST IOWA

CITY           SKY/WX    TMP DP  RH WIND       PRES   REMARKS
ATLANTIC *     CLOUDY    41  34  75 NW18      29.48S
AUDUBON *      CLEAR     39  30  70 NW18G25   29.47S WCI  30
CLARINDA *     CLOUDY    43  36  75 NW15G23   29.50S
COUNCIL BLFS * MOCLDY    41  32  70 NW15G24   29.50S
CRESTON *      CLOUDY    39  37  93 NW25G37   29.43R WCI  28
HARLAN  *      CLOUDY    39  34  81 N18G24    29.52S WCI  30
LAMONI         LGT RAIN  41  38  89 NW25G37   29.38R
RED OAK *      CLOUDY    41  36  81 NW12G20   29.50S
SHENANDOAH *   CLOUDY    43  36  75 NW16      29.51F
$$

IAZ047>049-059>061-072>074-084-240300-
   CENTRAL IOWA

CITY           SKY/WX    TMP DP  RH WIND       PRES   REMARKS
AMES           RAIN      38  36  92 N22G31    29.39R WCI  27
ANKENY *       LGT RAIN  41  37  87 N22G31    29.39R
CHARITON *     LGT RAIN  43  41  93 NW23G37   29.35S
DES MOINES     LGT RAIN  41  37  86 N22G31    29.39R FOG
GRINNELL*      CLOUDY    41  41 100 NW24G30   29.33R
KNOXVILLE *    CLOUDY    43  41  93 NW24      29.33S FOG
MARSHALLTOWN   CLOUDY    42  39  89 NW24G32   29.33F
PELLA *        DRIZZLE   43  41  93 NW21G29   29.35R
PERRY *        CLOUDY    41  37  87 NW20G29   29.42F
$$

IAZ004>006-015-016-023>025-035-036-240300-
   NORTH CENTRAL IOWA

CITY           SKY/WX    TMP DP  RH WIND       PRES   REMARKS
ALGONA *       CLOUDY    37  34  87 NW14G25   29.43F WCI  29
CLARION *      LGT RAIN  37  37 100 NW24G31   29.39F WCI  26
ESTHERVILLE    MOCLDY    35  30  82 NW17      29.44F WCI  25
FORT DODGE *   CLOUDY    37  30  75 NW14G24   29.43F WCI  29
MASON CITY     LGT RAIN  38  35  89 NW30G37   29.38S WCI  26
FOREST CITY *  CLOUDY    37  36  93 NW20G29   29.38F WCI  27
IOWA FALLS *   LGT RAIN  39  36  87 NW24G32   29.37S WCI  28
$$

IAZ007>011-017>019-026>030-037>042-050>054-066-240300-
   NORTHEAST IOWA

CITY           SKY/WX    TMP DP  RH WIND       PRES   REMARKS
CEDAR RAPIDS   FOG       48  48 100 NW6       29.24F VSB 1/4
CHARLES CITY * MIX PCPN  39  39 100 NW22G29   29.33S WCI  29
CLINTON *      CLOUDY    48  46  93 SE6       29.26F VSB 1
DECORAH *      FOG       46  46 100 CALM      29.25F VSB 1/4
DUBUQUE        FOG       47  47 100 CALM      29.23F VSB 1/4
MONTICELLO *   FOG       46  46 100 CALM      29.24F VSB 1/4
OELWEIN *      FOG       45  45 100 NW18      29.27F VSB 1/2
WATERLOO       CLOUDY    41  41 100 NW16      29.30S
$$

IAZ064-065-067-068-078-240300-
   EAST CENTRAL IOWA

CITY           SKY/WX    TMP DP  RH WIND       PRES   REMARKS
DAVENPORT      FOG       49  47  93 SE5       29.23F VSB 1/2
IOWA CITY      FOG       49  32  52 NW3       29.25F VSB 1/2
MT. PLEASANT * FOG       50  50 100 W5        29.24F VSB 1/2
MUSCATINE *    FOG       50  48  93 CALM      29.24F VSB 1/4
QUAD CITIES    FOG       50  49  96 E3        29.23F VSB 3/4
$$

IAZ062-063-075>077-085>089-095>099-240300-
   SOUTHEAST IOWA

CITY           SKY/WX    TMP DP  RH WIND       PRES   REMARKS
BURLINGTON     FOG       51  51 100 SW5       29.23F VSB 1/4
FAIRFIELD *    CLOUDY    52  50  93 NW13      29.25F
FORT MADISON * FOG       54  54 100 SW5       29.25F VSB 1/4
KEOKUK *       FOG       52  52 100 W3        29.23F VSB 1/4
OSKALOOSA *    CLOUDY    45  43  93 NW22G31   29.29S
CENTERVILLE *  MIX PCPN  45  45 100 NW21G30   29.32S
OTTUMWA        CLOUDY    45  42  89 NW25G37   29.28F
WASHINGTON *   FOG       52  52 100 W8        29.24F VSB 1/4
$$

ABBREVIATIONS USED IN REMARKS
   TC - TEMPERATURES IN CELSIUS
  WCI - WIND CHILL INDEX
   HX - HEAT INDEX
  VSB - VISIBILITY
$$



USA.gov is the U.S. government's official web portal to all federal, state and local government web resources and services.